Weather observations for the past three days for
Great Bend, Great Bend Municipal Airport
Imperial (Metric)
Date Time (cdt) Wind (mph) Vis. (mi.) Weather Sky Cond. Temperature (ºF) Relative Humidity Wind Chill (°F) Heat Index (°F) Pressure Precipitation (in)
Air Dwpt 6 hour altimeter (in) sea level (mb) 1 hr 3 hr 6 hr
Max. Min.
16 08:56 S 20 10.00 Fair CLR 79 66.9 67% 81 29.79 1006.7
16 07:56 S 13 10.00 Fair CLR 75.9 66.9 74% 77 29.78 1006.4
16 06:56 S 7 10.00 Fair CLR 72 66 80.1 72 82% 29.79 1006.7
16 05:56 SW 9 G 18 10.00 Fair CLR 73.9 66 76% 29.78 1006.4
16 04:56 S 20 10.00 Fair CLR 75 66 74% 76 29.75 1005.4
16 03:56 S 18 10.00 Fair CLR 75.9 66 72% 77 29.75 1005.3
16 02:56 S 21 G 25 10.00 Fair and Breezy CLR 77 66 69% 79 29.76 1005.6
16 01:56 S 17 10.00 Fair CLR 79 64.9 62% 81 29.75 1005.3
16 00:56 S 12 10.00 Fair CLR 80.1 64 86 77 58% 82 29.76 1005.4
15 23:56 SE 16 10.00 A Few Clouds FEW110 79 63 58% 81 29.75 1005.2
15 22:56 S 14 10.00 Partly Cloudy FEW080 SCT100 80.1 66 62% 82 29.75 1005.1
15 21:56 S 13 10.00 A Few Clouds FEW110 79 66.9 67% 81 29.73 1004.8
15 20:56 S 15 10.00 Partly Cloudy SCT120 80.1 68 67% 83 29.73 1004.8
15 19:56 SE 22 G 28 10.00 Fair and Breezy CLR 86 66 51% 88 29.71 1004.2
15 18:56 S 22 G 31 10.00 Fair and Breezy CLR 86 66 91 79 51% 88 29.73 1004.8
15 17:56 S 29 G 37 10.00 Fair and Windy CLR 89.1 64.9 45% 91 29.74 1005.0
15 16:56 S 25 G 30 10.00 Fair and Breezy CLR 88 64 45% 89 29.77 1006.1
15 15:56 S 22 G 33 10.00 A Few Clouds and Breezy FEW100 88 64 45% 89 29.79 1006.9
15 14:56 S 32 G 39 10.00 Light Rain and Windy CLR 80.1 63 56% 81 29.82 1007.9
15 13:56 S 28 G 35 10.00 Fair and Windy CLR 87.1 62.1 43% 88 29.84 1008.4
15 12:56 S 25 G 30 10.00 Fair and Breezy CLR 89.1 64.9 90 68 45% 91 29.84 1008.3
15 11:56 S 23 G 26 10.00 Fair and Breezy CLR 88 66 48% 90 29.86 1009.0
15 10:56 S 18 10.00 Fair CLR 82.9 64.9 55% 85 29.88 1009.6
15 09:56 S 18 G 23 10.00 Fair CLR 81 64.9 58% 83 29.9 1010.4
15 08:56 S 15 10.00 Fair CLR 79 64 60% 81 29.92 1011.1
15 07:56 S 7 10.00 Fair CLR 72 64 76% 29.94 1011.8
15 06:56 Calm 10.00 Fair CLR 68 64.9 71.1 66.9 90% 29.94 1011.9
15 05:56 S 3 10.00 Fair CLR 68 64.9 90% 29.93 1011.6
15 04:56 S 5 10.00 Fair CLR 68 64 87% 29.93 1011.5
15 03:56 S 8 10.00 Fair CLR 68 64.9 90% 29.92 1011.1
15 02:56 SE 12 10.00 Fair CLR 70 66 87% 29.91 1010.6
15 01:56 E 8 10.00 Fair CLR 71.1 66 84% 29.93 1011.4
15 00:56 E 5 10.00 Light Rain CLR 71.1 66 89.1 71.1 84% 29.95 1012.4
14 23:56 SW 9 10.00 Partly Cloudy FEW090 SCT120 73 64.9 76% 29.96 1012.7
14 22:56 SW 23 G 31 10.00 A Few Clouds and Breezy FEW080 81 70 69% 84 29.98 1013.3
14 21:56 SE 10 10.00 Fair CLR 81 68 65% 84 29.94 1011.9
14 20:56 SE 9 10.00 Fair CLR 82 68 63% 85 29.94 1012.0
14 19:56 SE 12 10.00 Fair CLR 88 66.9 50% 91 29.92 1011.3
14 18:56 SE 9 10.00 Fair CLR 89.1 69.1 91.9 87.1 52% 94 29.93 1011.6
14 17:56 S 10 10.00 Fair CLR 91 71.1 52% 98 29.94 1011.9
14 16:56 S 12 10.00 Fair CLR 90 69.1 50% 95 29.94 1012.1
14 15:56 SE 18 10.00 Fair CLR 91 66.9 45% 94 29.96 1012.5
14 14:56 SE 15 10.00 Fair CLR 91.9 64.9 41% 94 29.97 1013.0
14 13:56 SE 12 10.00 Fair CLR 91 64 41% 93 30.01 1014.1
14 12:56 Vrbl 3 10.00 Fair CLR 87.1 64 87.1 66 46% 88 30.05 1015.7
14 11:56 Calm 10.00 Fair CLR 84 62.1 48% 85 30.07 1016.4
14 10:56 Vrbl 3 10.00 Fair CLR 82 64 55% 84 30.08 1016.8
14 09:56 SW 3 10.00 Fair CLR 79 64 60% 81 30.08 1016.8
14 08:56 NE 3 10.00 Fair CLR 73 63 71% 30.08 1017.0
14 07:56 S 7 7.00 Fair CLR 70 62.1 76% 30.08 1017.3
14 06:56 S 10 10.00 Fair CLR 66 62.1 70 66 87% 30.08 1017.0
14 05:56 NE 8 10.00 Fair CLR 66.9 61 81% 30.01 1014.0
14 04:56 N 9 10.00 Fair CLR 66 61 84% 29.99 1013.3
14 03:56 N 9 10.00 Fair CLR 66 61 84% 29.97 1012.8
14 02:56 N 10 10.00 Fair CLR 68 61 78% 29.97 1012.7
14 01:56 W 6 10.00 Fair CLR 69.1 62.1 78% 29.98 1013.0
14 00:56 N 3 10.00 Fair CLR 70 62.1 82 70 76% 29.97 1012.7 0.04
13 23:56 S 8 10.00 Fair CLR 73.9 60.1 62% 29.97 1012.7
13 22:56 S 16 G 24 10.00 Fair CLR 75 60.1 60% 77 29.97 1012.8
13 21:56 S 22 10.00 Light Rain and Breezy FEW110 75 62.1 64% 77 29.91 1010.8 0.04
13 20:56 S 31 G 36 10.00 Light Rain and Windy FEW050 SCT070 BKN100 79 59 50% 80 29.82 1007.9
13 19:56 SW 17 G 29 10.00 Thunderstorm in Vicinity Light Rain CLR 72 61 68% 29.89 1010.6 0.04
13 18:56 E 20 G 35 5.00 Thunderstorm Heavy Rain SCT039 BKN070 OVC090 80.1 64 102.9 80.1 58% 82 29.88 1009.9
13 17:56 SE 8 10.00 Thunderstorm Rain CLR 95 69.1 43% 101 29.85 1008.5
13 16:56 S 15 G 24 10.00 Fair CLR 102.9 69.1 34% 110 29.81 1006.9
13 15:56 S 15 G 21 10.00 Fair CLR 102 70 36% 110 29.84 1007.9
13 14:56 S 15 G 22 10.00 Fair CLR 100 70 38% 108 29.85 1008.3
13 13:56 SW 15 G 20 10.00 Fair CLR 99 71.1 41% 107 29.86 1008.7
13 12:56 SW 14 G 20 10.00 Fair CLR 97 70 97 73 42% 104 29.87 1008.9
13 11:56 SW 15 10.00 Fair CLR 93.9 70 46% 100 29.87 1009.1
13 10:56 SW 14 10.00 Fair CLR 90 69.1 50% 95 29.87 1009.0
13 09:56 SW 16 10.00 Fair CLR 86 69.1 57% 90 29.87 1009.3
Date Time (cdt) Wind (mph) Vis. (mi.) Weather Sky Cond. Air Dwpt Max. Min. Relative Humidity Wind Chill (°F) Heat Index (°F) altimeter (in) sea level (mb) 1 hr 3 hr 6 hr
6 hour
Temperature (ºF) Pressure Precipitation (in)